Regional Weather Roundup
Issued by NWS

Home | Current Version | Previous Version | Graphics & Text | Print | Product List | Glossary On
Versions: 1 2 3 4 5 6 7 8 9 10 11 12 13 14 15 16 17 18 19 20 21 22 23 24 25 26 27 28 29 30 31 32 33 34 35 36 37 38 39 40 41 42 43 44 45 46 47 48 49 50
000
ASUS43 KLMK 111902
RWRKY
KENTUCKY REGIONAL WEATHER ROUNDUP
NATIONAL WEATHER SERVICE LOUISVILLE KY
300 PM EDT FRI JUL 11 2014

NOTE "FAIR" INDICATES FEW OR NO CLOUDS BELOW 12,000 FEET
WITH NO SIGNIFICANT WEATHER AND/OR OBSTRUCTIONS TO VISIBILITY.

KYZ001>023-026-027-061>063-070>075-112000-
WESTERN AND SOUTH CENTRAL KENTUCKY

CITY           SKY/WX    TMP DP  RH WIND       PRES   REMARKS
PADUCAH        MOSUNNY   89  64  43 CALM      30.15F HX  90
HENDERSON      SUNNY     84  64  51 NE3       30.16F
OWENSBORO      MOSUNNY   87  61  41 NW7       30.17F
HOPKINSVILLE   MOSUNNY   89  61  38 VRB2      30.17F
BOWLING GREEN  PTSUNNY   87  60  40 CALM      30.18S
GLASGOW        NOT AVBL
$$

KYZ024-025-028>034-038-045-046-053-112000-
NORTH CENTRAL KENTUCKY

CITY           SKY/WX    TMP DP  RH WIND       PRES   REMARKS
LOUISVILLE/SDF MOSUNNY   89  57  33 SW6       30.17F
LOUISVILLE/LOU MOSUNNY   88  58  36 VRB7      30.18F
FORT KNOX      MOSUNNY   84  63  48 VRB2      30.18F
$$

KYZ035>037-039>044-047>052-055>060-089>105-112000-
NORTHEAST KENTUCKY

CITY           SKY/WX    TMP DP  RH WIND       PRES   REMARKS
LEXINGTON      MOSUNNY   88  59  37 N3        30.20F
COVINGTON      MOSUNNY   84  56  38 SW5       30.20F
FRANKFORT      MOSUNNY   86  60  41 W7        30.18F
$$

KYZ054-064>069-076>088-106>120-112000-
SOUTHEAST KENTUCKY

CITY           SKY/WX    TMP DP  RH WIND       PRES   REMARKS
JACKSON        SUNNY     86  54  33 NW6       30.21F
LONDON         MOSUNNY   89  55  31 CALM      30.20F
SOMERSET       SUNNY     88  46  23 N7        30.19F
MIDDLESBORO    MOSUNNY   85  62  45 N5        30.19F
MONTICELLO     PTCLDY    89  56  32 S3        30.20F
$$




USA.gov is the U.S. government's official web portal to all federal, state and local government web resources and services.